Weather History for 08181 - September, 2013

Change the Weather History Date:

Sunday, September 1, 2013

  Actual Average Record
Temperature  
Mean Temperature 75 °F -  
Max Temperature 82 °F 75 °F - ()
Min Temperature 68 °F 62 °F - ()
Cooling Degree Days 10    
Growing Degree Days 25 (Base 50)    
Moisture  
Dew Point 61 °F    
Average Humidity 61    
Maximum Humidity 73    
Minimum Humidity 41    
Precipitation  
Precipitation 0.00 in 0.10 in - ()
Sea Level Pressure  
Sea Level Pressure 30.14 in    
Wind  
Wind Speed 7 mph ()    
Max Wind Speed 14 mph    
Max Gust Speed 25 mph    
Visibility 7.7 miles    
Events      
T = Trace of Precipitation, MM = Missing Value Source: Averaged Metar Reports

Daily Weather History Graph

Daily Weather History Graph

Search for Another Location

Airport or City:

Trip Planner

Search our weather history database for the weather conditions in past years. The results will help you decide how hot, cold, wet, or windy it might be!

Date:

Astronomy

Sep. 01, 2013 Rise Set
Actual Time 7:18 AM CEST 8:24 PM CEST
Civil Twilight 6:49 AM CEST 8:52 PM CEST
Nautical Twilight 6:15 AM CEST 9:26 PM CEST
Astronomical Twilight 5:40 AM CEST 10:01 PM CEST
Moon 3:24 AM CEST 5:53 PM CEST
Length of Visible Light 14h 03m
Length of Day
13h 06m
Waning Crescent, 15% of the Moon is Illuminated
Sep 1
Waning Crescent
Sep 5
New
Sep 12
First Quarter
Sep 19
Full
Sep 27
Last Quarter

Hourly Weather History & Observations

Time (CEST) Temp. Heat Index Dew Point Humidity Pressure Visibility Wind Dir Wind Speed Gust Speed Precip Events Conditions
12:00 AM 73.4 °F - 60.8 °F 65% 30.18 in 6.2 mi WNW 3.5 mph - N/A   Partly Cloudy
12:30 AM 73.4 °F - 60.8 °F 65% 30.15 in 6.2 mi WNW 5.8 mph - N/A   Partly Cloudy
1:00 AM 73.4 °F - 60.8 °F 65% 30.15 in 6.2 mi WNW 6.9 mph - N/A   Partly Cloudy
1:30 AM 73.4 °F - 60.8 °F 65% 30.15 in 6.2 mi NW 4.6 mph - N/A   Partly Cloudy
2:00 AM 72 °F - 62 °F 64% 30.17 in 11 mi NNW 6.9 mph - -   Scattered Clouds
2:00 AM 73.4 °F - 60.8 °F 65% 30.15 in 6.2 mi NNW 9.2 mph - N/A   Partly Cloudy
2:30 AM 71.6 °F - 60.8 °F 69% 30.15 in 6.2 mi NW 8.1 mph - N/A   Partly Cloudy
3:00 AM 71.6 °F - 60.8 °F 69% 30.15 in 6.2 mi NNW 6.9 mph - N/A   Partly Cloudy
3:30 AM 71.6 °F - 62.6 °F 73% 30.15 in 6.2 mi NNW 6.9 mph - N/A   Partly Cloudy
4:00 AM 71.6 °F - 62.6 °F 73% 30.15 in 6.2 mi NW 5.8 mph - N/A   Partly Cloudy
4:30 AM 71.6 °F - 60.8 °F 69% 30.12 in 6.2 mi NNW 5.8 mph - N/A   Partly Cloudy
5:00 AM 71.6 °F - 60.8 °F 69% 30.12 in 6.2 mi NNW 9.2 mph - N/A   Partly Cloudy
5:30 AM 69.8 °F - 60.8 °F 73% 30.12 in - NW 10.4 mph - N/A   Clear
6:00 AM 69.8 °F - 60.8 °F 73% 30.12 in - NNW 9.2 mph - N/A   Clear
6:30 AM 69.8 °F - 59.0 °F 68% 30.12 in - NNW 10.4 mph - N/A   Clear
7:00 AM 68.0 °F - 59.0 °F 73% 30.12 in - NW 8.1 mph - N/A   Clear
7:30 AM 68.0 °F - 59.0 °F 73% 30.12 in - NW 10.4 mph - N/A   Clear
8:00 AM 68.0 °F - 59.0 °F 73% 30.12 in - NNW 8.1 mph - N/A   Clear
8:30 AM 69.8 °F - 59.0 °F 68% 30.12 in - NNW 12.7 mph - N/A   Clear
9:00 AM 69.8 °F - 59.0 °F 68% 30.12 in - NNW 13.8 mph - N/A   Clear
9:30 AM 73.4 °F - 59.0 °F 61% 30.15 in - NNW 13.8 mph 25.3 mph N/A   Clear
10:00 AM 75.2 °F - 57.2 °F 53% 30.15 in - NNW 11.5 mph - N/A   Clear
10:30 AM 75.2 °F - 57.2 °F 53% 30.15 in - NNW 12.7 mph - N/A   Clear
11:00 AM 78.8 °F - 55.4 °F 44% 30.15 in - NNW 11.5 mph 23.0 mph N/A   Clear
11:30 AM 80.6 °F 80.5 °F 55.4 °F 42% 30.15 in - East 5.8 mph - N/A   Clear
12:00 PM 80.6 °F 81.1 °F 59.0 °F 48% 30.15 in - East 6.9 mph - N/A   Clear
12:30 PM 80.6 °F 81.5 °F 60.8 °F 51% 30.15 in - ESE 8.1 mph - N/A   Clear
1:00 PM 80.6 °F 81.5 °F 60.8 °F 51% 30.15 in - ESE 8.1 mph - N/A   Clear
1:30 PM 80.6 °F 81.5 °F 60.8 °F 51% 30.15 in - SE 6.9 mph - N/A   Clear
2:00 PM 82 °F - 62 °F 41% 30.16 in 19 mi South 6.9 mph - -   Scattered Clouds
2:00 PM 80.6 °F 81.8 °F 62.6 °F 54% 30.15 in 6.2 mi SE 8.1 mph - N/A   Partly Cloudy
2:30 PM 80.6 °F 81.5 °F 60.8 °F 51% 30.15 in 6.2 mi SSE 6.9 mph - N/A   Partly Cloudy
3:00 PM 80.6 °F 81.5 °F 60.8 °F 51% 30.15 in 6.2 mi SSE 6.9 mph - N/A   Partly Cloudy
3:30 PM 78.8 °F - 62.6 °F 57% 30.15 in 6.2 mi SSE 6.9 mph - N/A   Partly Cloudy
4:00 PM 80.6 °F 81.5 °F 60.8 °F 51% 30.15 in 6.2 mi SSE 9.2 mph - N/A   Partly Cloudy
4:30 PM 80.6 °F 82.3 °F 64.4 °F 58% 30.15 in 6.2 mi South 9.2 mph - N/A   Partly Cloudy
5:00 PM 80.6 °F 81.8 °F 62.6 °F 54% 30.12 in - South 9.2 mph - N/A   Clear
5:30 PM 80.6 °F 82.3 °F 64.4 °F 58% 30.12 in - SSW 8.1 mph - N/A   Clear
6:00 PM 80.6 °F 82.3 °F 64.4 °F 58% 30.12 in - South 6.9 mph - N/A   Clear
6:30 PM 78.8 °F - 64.4 °F 61% 30.12 in - South 6.9 mph - N/A   Clear
7:00 PM 78.8 °F - 64.4 °F 61% 30.12 in - South 6.9 mph - N/A   Clear
7:30 PM 78.8 °F - 62.6 °F 57% 30.12 in - South 6.9 mph - N/A   Clear
8:00 PM 79 °F - 65 °F 54% 30.14 in 19 mi South 5.8 mph - -   Clear
8:00 PM 78.8 °F - 62.6 °F 57% 30.12 in - South 5.8 mph - N/A   Clear
8:30 PM 78.8 °F - 64.4 °F 61% 30.15 in - South 3.5 mph - N/A   Clear
9:00 PM 77.0 °F - 64.4 °F 65% 30.15 in - South 3.5 mph - N/A   Clear
9:30 PM 77.0 °F - 64.4 °F 65% 30.15 in - SSW 4.6 mph - N/A   Clear
10:00 PM 77.0 °F - 64.4 °F 65% 30.18 in - SSW 4.6 mph - N/A   Clear
10:30 PM 77.0 °F - 62.6 °F 61% 30.18 in - South 3.5 mph - N/A   Clear
11:00 PM 75.2 °F - 62.6 °F 65% 30.18 in - West 3.5 mph - N/A   Clear
11:30 PM 75.2 °F - 62.6 °F 65% 30.18 in - WNW 3.5 mph - N/A   Clear